Aeroboteco Virtual Airlines! Uma nuvem a frente.



 INFORMAÇÕES METEOROLÓGICAS
METAR FOR KEEO
ADDS - METARS form results

(2345 UTC 18 August 2019)
Data provider http://aviationweather.gov/metar/data/
 
METAR text: KEEO 182253Z AUTO 27011G17KT 10SM CLR 31/M02 A3010 RMK AO2 SLP099 T03111022
Conditions at: KEEO (MEEKER , CO, US) observed 2253 UTC 18 August 2019
Temperature: 31.1°C (88°F)
Dewpoint: -2.2°C (28°F) [RH = 12%]
Pressure (altimeter): 30.10 inches Hg (1019.4 mb)
[Sea-level pressure: 1009.9 mb]
Winds: from the W (270 degrees) at 13 MPH (11 knots; 5.7 m/s)
gusting to 20 MPH (17 knots; 8.7 m/s)
Visibility: 10 or more miles (16+ km)
Ceiling: at least 12,000 feet AGL
Clouds: sky clear below 12,000 feet AGL
Weather: automated observation with no human augmentation;
there may or may not be significant weather present at this time

 MAPA DO AEROPORTO

 INFORMAÇÕES DA PISTA
Pista 03 Tamanho da pista 6500 ft Largura da pista 60 ft
Elevação da pista 6348 ft Ranhura da pista 0 ft Proa da pista 40
Pista 21 Tamanho da pista 6500 ft Largura da pista 60 ft
Elevação da pista 6421 ft Ranhura da pista 500 ft Proa da pista 220

 FREQUÊNCIAS DO AEROPORTO
Tipo ASOS Nome ASOS Frequência 135.525 MHZ
Tipo CNTR Nome DENVER CNT Frequência 134.5 MHZ
Tipo RDO Nome DENVER RDO Frequência 122.15 MHZ
Tipo UNIC Nome CTAF/UNICO Frequência 122.8 MHZ

 AUXÍLIOS DE NAVEGAÇÃO PRÓXIMOS AO AEROPORTO